Regional Weather Roundup
Issued by NWS

Home | Current Version | Previous Version | Graphics & Text | Print | Product List | Glossary On
Versions: 1 2 3 4 5 6 7 8 9 10 11 12 13 14 15 16 17 18 19 20 21 22 23 24 25 26 27 28 29 30 31 32 33 34 35 36 37 38 39 40 41 42 43 44 45 46 47 48 49 50
000
ASUS45 KSLC 231910
RWRUT

UTAH REGIONAL WEATHER ROUNDUP
NATIONAL WEATHER SERVICE SALT LAKE CITY UT
1200 PM MST SUN NOV 23 2014

UTZ001>011-023>025-232000-

NORTHERN UTAH

CITY           SKY/WX    TMP DP  RH WIND       PRES   REMARKS
BRIGHAM CITY   MOSUNNY   39  22  50 N16       30.24S WCI  30
HILL AFB       SUNNY     36  24  62 NW13      30.23R WCI  27
LOGAN          PTSUNNY   37  23  56 NW8       30.21S WCI  31
OGDEN          PTSUNNY   37  24  59 NW14      30.23R WCI  28
PROVO AIRPORT  PTSUNNY   34  27  75 NW9       30.24S WCI  26
SALT LAKE CITY PTSUNNY   37  24  59 NW12      30.24S WCI  29
VERNAL         SUNNY     40  13  33 NW14      30.03F WCI  32
WENDOVER       SUNNY     43  19  39 NW14G21   30.28R
HEBER CITY     MOSUNNY   36  21  55 SE7       30.15S WCI  30
WEST JORDAN    PTSUNNY   36  27  69 W14G22    30.24S WCI  27

$$

UTZ012>022-026-027-232000-

SOUTHERN/CENTRAL UTAH

CITY           SKY/WX    TMP DP  RH WIND       PRES   REMARKS
BLANDING       SUNNY     39  12  33 NW24G43   30.07R WCI  28
BRYCE CANYON   SUNNY     29  14  53 NW17G23   30.17S WCI  17
CEDAR CITY     SUNNY     38  14  37 N20       30.26R WCI  28
DELTA          SUNNY     37  23  56 NW21G29   30.27S WCI  26
MILFORD        SUNNY     40  20  44 NE10      30.27F WCI  33
MOAB/CYNLANDS  SUNNY     45  15  30 W17       30.04R
PRICE          MOSUNNY   34  16  47 NW18G32   30.08S WCI  23
ST GEORGE      PTCLDY    54  16  22 S6        30.27F
KANAB          SUNNY     46   3  17 NW12G22   30.25S

$$

REGIONAL REPORTS     COLORADO/ARIZONA

CITY           SKY/WX    TMP DP  RH WIND       PRES   REMARKS
CRAIG, CO      FLURRIES  30  22  72 W16       29.96R WCI  19
GRAND JUNCTION PTSUNNY   37  24  59 NW14      30.01S WCI  28
RIFLE          CLOUDY    33  28  81 NW3       29.96F
MONTROSE       CLOUDY    34  25  69 NW24G30   29.98S WCI  21
CORTEZ         CLOUDY    37  16  42 NW20G26   29.97F WCI  27
PAGE, AZ       NOT AVBL
GRAND CANYON   SUNNY     42   1  18 NW12G23   30.15F
KINGMAN        SUNNY     54  10  17 NW16G25   30.22F
FLAGSTAFF      SUNNY     41  -7  13 MISG      30.12F

$$

REGIONAL REPORTS    NEVADA/IDAHO/WYOMING

CITY           SKY/WX    TMP DP  RH WIND       PRES   REMARKS
LAS VEGAS, NV  MOSUNNY   60  14  16 MISG      30.24F
ELY            SUNNY     35  27  72 N6        30.31S WCI  30
ELKO           MOSUNNY   36  22  56 SW8       30.34F WCI  30
POCATELLO, ID  MOSUNNY   36  27  69 SW25      30.21F WCI  24
BURLEY         FLURRIES  37  25  61 W21G36    30.23F WCI  26
EVANSTON, WY   MOSUNNY   28  17  63 NW16      30.10S WCI  16
ROCK SPRINGS   SUNNY     29  11  47 NW30G39   29.98F WCI  13
KEMMERER       MOSUNNY   27  18  69 W20G30    30.05F WCI  13

$$


USA.gov is the U.S. government's official web portal to all federal, state and local government web resources and services.